JBU1084 KBOI-KDEN

Flight info

Callsign JBU1084
Flight time 1h 26m
Altitude 37000
Route ROARR AMFAL MJANE FLATI5
Aircraft A321/M-SDE3FGHIRWY/LB1

Departure

Time 2026-05-08 04:42
Airport Boise Air Terminal/Gowen Field (KBOI)

Arrival

Time 2026-05-08 06:09
Airport Denver International Airport (KDEN)
Time Latitude Longitude Altitude Speed Heading
2026-05-08 04:04 43.56739 -116.22121 2882 ft 0 kts 25°
2026-05-08 04:31 43.56726 -116.22130 2881 ft 3 kts 19°
2026-05-08 04:31 43.56708 -116.22131 2881 ft 3 kts 348°
2026-05-08 04:32 43.56690 -116.22123 2881 ft 3 kts 327°
2026-05-08 04:32 43.56681 -116.22113 2881 ft 3 kts 309°
2026-05-08 04:32 43.56670 -116.22093 2881 ft 3 kts 300°
2026-05-08 04:32 43.56660 -116.22070 2881 ft 3 kts 300°
2026-05-08 04:33 43.56651 -116.22048 2881 ft 3 kts 294°
2026-05-08 04:33 43.56645 -116.22025 2881 ft 2 kts 295°
2026-05-08 04:33 43.56640 -116.22010 2881 ft 0 kts 295°
2026-05-08 04:37 43.56640 -116.22011 2881 ft 0 kts 295°
2026-05-08 04:37 43.56644 -116.22024 2881 ft 7 kts 291°
2026-05-08 04:37 43.56608 -116.22082 2881 ft 10 kts 181°
2026-05-08 04:38 43.56568 -116.22010 2881 ft 11 kts 117°
2026-05-08 04:38 43.56534 -116.21910 2881 ft 12 kts 115°
2026-05-08 04:38 43.56496 -116.21797 2881 ft 14 kts 115°
2026-05-08 04:38 43.56454 -116.21673 2881 ft 15 kts 115°
2026-05-08 04:39 43.56409 -116.21537 2881 ft 16 kts 115°
2026-05-08 04:39 43.56358 -116.21394 2882 ft 17 kts 115°
2026-05-08 04:39 43.56305 -116.21242 2882 ft 18 kts 116°
2026-05-08 04:39 43.56263 -116.21121 2882 ft 13 kts 115°
2026-05-08 04:40 43.56224 -116.21002 2882 ft 14 kts 111°
2026-05-08 04:40 43.56173 -116.20876 2882 ft 15 kts 142°
2026-05-08 04:40 43.56077 -116.20908 2882 ft 15 kts 204°
2026-05-08 04:40 43.56014 -116.20949 2881 ft 0 kts 205°
2026-05-08 04:41 43.55967 -116.20979 2881 ft 17 kts 205°
2026-05-08 04:41 43.55920 -116.21077 2881 ft 8 kts 291°
2026-05-08 04:41 43.55925 -116.21093 2881 ft 10 kts 291°
2026-05-08 04:41 43.56068 -116.21518 2881 ft 85 kts 295°
2026-05-08 04:42 43.56413 -116.22529 2882 ft 146 kts 295°
2026-05-08 04:42 43.56890 -116.23880 3381 ft 157 kts 296°
2026-05-08 04:42 43.57459 -116.25143 3904 ft 158 kts 319°
2026-05-08 04:42 43.58477 -116.25910 4202 ft 177 kts 328°
2026-05-08 04:43 43.59555 -116.26861 4517 ft 190 kts 321°
2026-05-08 04:43 43.60573 -116.28078 4889 ft 196 kts 312°
2026-05-08 04:43 43.61473 -116.29503 5341 ft 195 kts 304°
2026-05-08 04:43 43.62230 -116.31070 5668 ft 198 kts 299°
2026-05-08 04:44 43.62876 -116.32866 5908 ft 221 kts 292°
2026-05-08 04:44 43.63413 -116.34943 6357 ft 238 kts 286°
2026-05-08 04:44 43.63808 -116.37218 6848 ft 251 kts 280°
2026-05-08 04:44 43.63671 -116.39674 7229 ft 265 kts 252°
2026-05-08 04:45 43.62660 -116.41834 7657 ft 274 kts 224°
2026-05-08 04:45 43.60992 -116.43195 8242 ft 284 kts 205°
2026-05-08 04:45 43.59125 -116.44159 8820 ft 288 kts 203°
2026-05-08 04:45 43.57231 -116.45067 9400 ft 291 kts 203°
2026-05-08 04:46 43.55311 -116.45986 9995 ft 293 kts 203°
2026-05-08 04:46 43.53357 -116.46881 10533 ft 301 kts 200°
2026-05-08 04:46 43.51257 -116.47214 11085 ft 316 kts 178°
2026-05-08 04:46 43.49112 -116.46317 11650 ft 329 kts 151°
2026-05-08 04:47 43.47406 -116.44182 12219 ft 338 kts 123°
2026-05-08 04:47 43.46512 -116.41230 12766 ft 343 kts 101°
2026-05-08 04:47 43.45989 -116.37986 13329 ft 351 kts 100°
2026-05-08 04:47 43.45460 -116.34635 13893 ft 357 kts 100°
2026-05-08 04:48 43.44935 -116.31307 14395 ft 363 kts 101°
2026-05-08 04:48 43.44390 -116.27887 14909 ft 369 kts 101°
2026-05-08 04:48 43.43830 -116.24411 15454 ft 374 kts 101°
2026-05-08 04:48 43.43261 -116.20900 16000 ft 379 kts 101°
2026-05-08 04:49 43.42678 -116.17339 16545 ft 384 kts 101°
2026-05-08 04:49 43.42085 -116.13734 17100 ft 388 kts 101°
2026-05-08 04:49 43.41486 -116.10101 17658 ft 392 kts 102°
2026-05-08 04:49 43.40875 -116.06401 18016 ft 402 kts 102°
2026-05-08 04:50 43.40246 -116.02607 18332 ft 412 kts 102°
2026-05-08 04:50 43.39602 -115.98717 18598 ft 422 kts 102°
2026-05-08 04:50 43.38945 -115.94741 18875 ft 432 kts 102°
2026-05-08 04:50 43.38271 -115.90675 19145 ft 441 kts 102°
2026-05-08 04:51 43.37581 -115.86524 19417 ft 449 kts 102°
2026-05-08 04:51 43.36877 -115.82306 19672 ft 457 kts 102°
2026-05-08 04:51 43.36159 -115.78012 19909 ft 465 kts 102°
2026-05-08 04:51 43.35427 -115.73650 20163 ft 473 kts 102°
2026-05-08 04:52 43.34680 -115.69213 20813 ft 478 kts 103°
2026-05-08 04:52 43.33926 -115.64747 20669 ft 484 kts 100°
2026-05-08 04:52 43.33161 -115.60220 21306 ft 486 kts 103°
2026-05-08 04:52 43.32399 -115.55720 21100 ft 485 kts 102°
2026-05-08 04:53 43.31631 -115.51187 21347 ft 490 kts 101°
2026-05-08 04:53 43.30851 -115.46597 21599 ft 496 kts 102°
2026-05-08 04:53 43.30061 -115.41972 21863 ft 500 kts 102°
2026-05-08 04:53 43.29263 -115.37311 22121 ft 501 kts 103°
2026-05-08 04:54 43.28431 -115.32667 22368 ft 502 kts 104°
2026-05-08 04:54 43.27542 -115.28017 22627 ft 505 kts 104°
2026-05-08 04:54 43.26615 -115.23374 23044 ft 504 kts 104°
2026-05-08 04:54 43.25673 -115.18746 23520 ft 504 kts 105°
2026-05-08 04:55 43.24730 -115.14125 23927 ft 503 kts 104°
2026-05-08 04:55 43.23793 -115.09491 24230 ft 505 kts 104°
2026-05-08 04:55 43.22865 -115.04842 24504 ft 507 kts 104°
2026-05-08 04:55 43.21939 -115.00165 24784 ft 509 kts 104°
2026-05-08 04:56 43.21018 -114.95478 25080 ft 510 kts 104°
2026-05-08 04:56 43.20094 -114.90782 25367 ft 511 kts 104°
2026-05-08 04:56 43.19162 -114.86073 25660 ft 512 kts 104°
2026-05-08 04:56 43.18226 -114.81375 25955 ft 512 kts 104°
2026-05-08 04:57 43.17282 -114.76665 26265 ft 513 kts 103°
2026-05-08 04:57 43.16333 -114.71943 26558 ft 514 kts 103°
2026-05-08 04:57 43.15395 -114.67291 26853 ft 515 kts 103°
2026-05-08 04:57 43.14424 -114.62496 27163 ft 515 kts 103°
2026-05-08 04:58 43.13477 -114.57838 27461 ft 515 kts 103°
2026-05-08 04:58 43.12514 -114.53111 27761 ft 515 kts 103°
2026-05-08 04:58 43.11536 -114.48319 28064 ft 516 kts 103°
2026-05-08 04:58 43.10583 -114.43665 28366 ft 516 kts 103°
2026-05-08 04:59 43.09601 -114.38878 28676 ft 515 kts 103°
2026-05-08 04:59 43.08647 -114.34221 28981 ft 515 kts 103°
2026-05-08 04:59 43.07680 -114.29502 29315 ft 515 kts 103°
2026-05-08 04:59 43.06711 -114.24781 29644 ft 515 kts 102°
2026-05-08 05:00 43.05743 -114.20069 29963 ft 515 kts 103°
2026-05-08 05:00 43.04771 -114.15351 30252 ft 515 kts 102°
2026-05-08 05:00 43.03797 -114.10644 30539 ft 515 kts 102°
2026-05-08 05:00 43.02819 -114.05936 30808 ft 515 kts 102°
2026-05-08 05:01 43.01838 -114.01233 31095 ft 514 kts 102°
2026-05-08 05:01 43.00854 -113.96543 31397 ft 514 kts 102°
2026-05-08 05:01 42.99866 -113.91849 31695 ft 513 kts 102°
2026-05-08 05:01 42.98878 -113.87162 31982 ft 513 kts 102°
2026-05-08 05:02 42.97895 -113.82487 32294 ft 512 kts 102°
2026-05-08 05:02 42.96913 -113.77821 32629 ft 511 kts 101°
2026-05-08 05:02 42.95934 -113.73162 32941 ft 510 kts 101°
2026-05-08 05:02 42.94954 -113.68507 33250 ft 509 kts 101°
2026-05-08 05:03 42.93974 -113.63874 33588 ft 508 kts 101°
2026-05-08 05:03 42.92987 -113.59243 33908 ft 507 kts 101°
2026-05-08 05:03 42.92001 -113.54629 34187 ft 506 kts 101°
2026-05-08 05:03 42.91017 -113.50022 34476 ft 505 kts 101°
2026-05-08 05:04 42.90034 -113.45427 34771 ft 504 kts 101°
2026-05-08 05:04 42.89055 -113.40850 35065 ft 503 kts 101°
2026-05-08 05:04 42.88073 -113.36278 35354 ft 502 kts 101°
2026-05-08 05:04 42.87091 -113.31723 35684 ft 501 kts 100°
2026-05-08 05:05 42.86109 -113.27181 35994 ft 500 kts 100°
2026-05-08 05:05 42.85124 -113.22642 36298 ft 498 kts 100°
2026-05-08 05:05 42.84141 -113.18121 36609 ft 497 kts 100°
2026-05-08 05:05 42.83162 -113.13612 36843 ft 497 kts 100°
2026-05-08 05:06 42.81191 -113.04493 36905 ft 507 kts 100°
2026-05-08 05:06 42.79177 -112.95219 36913 ft 513 kts 101°
2026-05-08 05:07 42.77122 -112.85901 36941 ft 514 kts 101°
2026-05-08 05:07 42.75253 -112.78197 36914 ft 518 kts 104°
2026-05-08 05:08 42.72639 -112.69047 36923 ft 520 kts 107°
2026-05-08 05:08 42.69888 -112.59939 36923 ft 521 kts 107°
2026-05-08 05:09 42.67211 -112.50790 36945 ft 520 kts 105°
2026-05-08 05:09 42.64603 -112.41634 36936 ft 519 kts 105°
2026-05-08 05:10 42.60691 -112.27965 36943 ft 517 kts 105°
2026-05-08 05:11 42.58050 -112.18867 36949 ft 518 kts 106°
2026-05-08 05:11 42.55384 -112.09766 36942 ft 519 kts 105°
2026-05-08 05:12 42.52725 -112.00699 36933 ft 518 kts 105°
2026-05-08 05:12 42.50071 -111.91625 36945 ft 518 kts 105°
2026-05-08 05:13 42.47404 -111.82537 36938 ft 519 kts 105°
2026-05-08 05:13 42.44713 -111.73448 36992 ft 520 kts 106°
2026-05-08 05:14 42.42009 -111.64363 36986 ft 521 kts 105°
2026-05-08 05:14 42.39304 -111.55266 36983 ft 521 kts 106°
2026-05-08 05:15 42.36600 -111.46177 36986 ft 521 kts 105°
2026-05-08 05:15 42.33888 -111.37100 36995 ft 521 kts 106°
2026-05-08 05:16 42.31159 -111.28024 36999 ft 521 kts 106°
2026-05-08 05:16 42.28419 -111.18965 36997 ft 521 kts 106°
2026-05-08 05:17 42.25680 -111.09900 36992 ft 520 kts 106°
2026-05-08 05:17 42.22938 -111.00865 36980 ft 520 kts 106°
2026-05-08 05:18 42.20183 -110.91834 36997 ft 521 kts 106°
2026-05-08 05:18 42.17416 -110.82810 37012 ft 521 kts 106°
2026-05-08 05:19 42.14648 -110.73795 36989 ft 519 kts 106°
2026-05-08 05:19 42.11882 -110.64808 36977 ft 520 kts 106°
2026-05-08 05:20 42.09101 -110.55815 37061 ft 521 kts 106°
2026-05-08 05:20 42.06311 -110.46812 37133 ft 521 kts 105°
2026-05-08 05:21 42.03521 -110.37810 37052 ft 521 kts 106°
2026-05-08 05:21 42.00706 -110.28806 37037 ft 523 kts 106°
2026-05-08 05:22 41.97871 -110.19792 37022 ft 524 kts 106°
2026-05-08 05:22 41.95029 -110.10774 37021 ft 524 kts 106°
2026-05-08 05:23 41.92189 -110.01758 36996 ft 524 kts 106°
2026-05-08 05:23 41.89340 -109.92749 36999 ft 524 kts 106°
2026-05-08 05:24 41.86494 -109.83748 36985 ft 524 kts 106°
2026-05-08 05:24 41.83639 -109.74763 36971 ft 523 kts 106°
2026-05-08 05:25 41.80777 -109.65805 36969 ft 523 kts 107°
2026-05-08 05:25 41.77892 -109.56852 36981 ft 524 kts 107°
2026-05-08 05:26 41.74995 -109.47892 36992 ft 525 kts 107°
2026-05-08 05:26 41.72104 -109.38917 37053 ft 525 kts 107°
2026-05-08 05:27 41.69212 -109.29944 37083 ft 525 kts 107°
2026-05-08 05:27 41.66303 -109.20977 37124 ft 526 kts 107°
2026-05-08 05:28 41.63373 -109.12017 37145 ft 526 kts 107°
2026-05-08 05:28 41.60430 -109.03085 37109 ft 523 kts 107°
2026-05-08 05:29 41.57517 -108.94177 37131 ft 524 kts 107°
2026-05-08 05:29 41.54599 -108.85264 37098 ft 524 kts 107°
2026-05-08 05:30 41.51656 -108.76356 37090 ft 524 kts 108°
2026-05-08 05:30 41.50183 -108.71920 36988 ft 523 kts 108°
2026-05-08 05:30 41.48709 -108.67489 36981 ft 523 kts 108°
2026-05-08 05:31 41.45761 -108.58613 36997 ft 523 kts 108°
2026-05-08 05:31 41.42805 -108.49747 36998 ft 524 kts 108°
2026-05-08 05:32 41.39829 -108.40885 37013 ft 524 kts 108°
2026-05-08 05:32 41.37039 -108.31972 36975 ft 516 kts 101°
2026-05-08 05:33 41.34852 -108.22920 36988 ft 518 kts 101°
2026-05-08 05:33 41.32631 -108.13810 36993 ft 519 kts 101°
2026-05-08 05:34 41.30385 -108.04685 36997 ft 519 kts 102°
2026-05-08 05:34 41.28127 -107.95549 37001 ft 520 kts 102°
2026-05-08 05:35 41.25858 -107.86358 37003 ft 520 kts 101°
2026-05-08 05:35 41.23599 -107.77231 37044 ft 520 kts 102°
2026-05-08 05:36 41.21336 -107.68171 37072 ft 520 kts 102°
2026-05-08 05:36 41.19038 -107.59005 37112 ft 520 kts 102°
2026-05-08 05:37 41.16745 -107.49890 37138 ft 521 kts 102°
2026-05-08 05:37 41.14445 -107.40778 37147 ft 521 kts 102°
2026-05-08 05:38 41.12148 -107.31717 36753 ft 513 kts 102°
2026-05-08 05:38 41.11024 -107.27304 36285 ft 510 kts 102°
2026-05-08 05:38 41.09875 -107.22801 35795 ft 509 kts 102°
2026-05-08 05:38 41.08743 -107.18362 35340 ft 508 kts 102°
2026-05-08 05:39 41.07614 -107.13922 34877 ft 509 kts 102°
2026-05-08 05:39 41.06483 -107.09470 34446 ft 510 kts 102°
2026-05-08 05:39 41.05348 -107.05016 34002 ft 511 kts 102°
2026-05-08 05:39 41.04220 -107.00599 33542 ft 515 kts 102°
2026-05-08 05:40 41.03067 -106.96103 33056 ft 517 kts 102°
2026-05-08 05:40 41.01901 -106.91595 32566 ft 518 kts 102°
2026-05-08 05:40 41.00732 -106.87081 32077 ft 519 kts 102°
2026-05-08 05:40 40.99559 -106.82553 31597 ft 520 kts 102°
2026-05-08 05:41 40.98384 -106.78024 31124 ft 521 kts 102°
2026-05-08 05:41 40.97209 -106.73490 30650 ft 522 kts 103°
2026-05-08 05:41 40.96029 -106.68947 30214 ft 522 kts 103°
2026-05-08 05:41 40.94847 -106.64414 29699 ft 520 kts 104°
2026-05-08 05:42 40.93666 -106.59899 29163 ft 520 kts 104°
2026-05-08 05:42 40.92482 -106.55380 28646 ft 520 kts 104°
2026-05-08 05:42 40.91306 -106.50902 28147 ft 512 kts 105°
2026-05-08 05:42 40.90142 -106.46491 27664 ft 504 kts 105°
2026-05-08 05:43 40.88999 -106.42156 27192 ft 496 kts 105°
2026-05-08 05:43 40.87875 -106.37893 26734 ft 487 kts 105°
2026-05-08 05:43 40.86773 -106.33712 26293 ft 473 kts 106°
2026-05-08 05:43 40.85709 -106.29680 25853 ft 457 kts 107°
2026-05-08 05:44 40.84665 -106.25774 25414 ft 448 kts 109°
2026-05-08 05:44 40.83417 -106.22031 25053 ft 444 kts 113°
2026-05-08 05:44 40.82115 -106.18353 24820 ft 442 kts 113°
2026-05-08 05:44 40.80809 -106.14672 24608 ft 441 kts 113°
2026-05-08 05:45 40.79508 -106.11016 24397 ft 440 kts 114°
2026-05-08 05:45 40.78210 -106.07366 24195 ft 439 kts 114°
2026-05-08 05:45 40.76915 -106.03732 23970 ft 437 kts 114°
2026-05-08 05:45 40.75627 -106.00115 23740 ft 434 kts 114°
2026-05-08 05:46 40.74363 -105.96568 23513 ft 431 kts 114°
2026-05-08 05:46 40.73089 -105.93000 23245 ft 429 kts 114°
2026-05-08 05:46 40.71819 -105.89454 23010 ft 427 kts 114°
2026-05-08 05:46 40.70549 -105.85912 22679 ft 426 kts 114°
2026-05-08 05:47 40.69288 -105.82392 22342 ft 424 kts 114°
2026-05-08 05:47 40.68033 -105.78887 21989 ft 422 kts 114°
2026-05-08 05:47 40.66779 -105.75397 21639 ft 421 kts 115°
2026-05-08 05:47 40.65529 -105.71929 21297 ft 419 kts 115°
2026-05-08 05:48 40.64281 -105.68468 21025 ft 417 kts 115°
2026-05-08 05:48 40.63043 -105.65039 20984 ft 412 kts 115°
2026-05-08 05:48 40.61826 -105.61667 20716 ft 403 kts 115°
2026-05-08 05:48 40.60630 -105.58359 20466 ft 399 kts 115°
2026-05-08 05:49 40.59442 -105.55066 20217 ft 397 kts 115°
2026-05-08 05:49 40.58269 -105.51789 19955 ft 396 kts 115°
2026-05-08 05:49 40.57099 -105.48516 19668 ft 394 kts 115°
2026-05-08 05:49 40.55937 -105.45257 19406 ft 393 kts 115°
2026-05-08 05:50 40.54780 -105.42009 19152 ft 392 kts 115°
2026-05-08 05:50 40.53629 -105.38767 18964 ft 392 kts 115°
2026-05-08 05:50 40.52866 -105.36618 18720 ft 390 kts 114°
2026-05-08 05:50 40.51722 -105.33415 18347 ft 385 kts 115°
2026-05-08 05:51 40.50572 -105.30255 17932 ft 381 kts 115°
2026-05-08 05:51 40.49408 -105.27153 17534 ft 377 kts 116°
2026-05-08 05:51 40.48241 -105.24096 17108 ft 371 kts 116°
2026-05-08 05:51 40.47085 -105.21124 16678 ft 359 kts 120°
2026-05-08 05:52 40.45688 -105.18470 16241 ft 350 kts 132°
2026-05-08 05:52 40.43960 -105.16256 15983 ft 346 kts 144°
2026-05-08 05:52 40.42010 -105.14410 15883 ft 345 kts 147°
2026-05-08 05:52 40.40054 -105.12596 15789 ft 345 kts 147°
2026-05-08 05:53 40.38095 -105.10771 15690 ft 345 kts 147°
2026-05-08 05:53 40.36141 -105.08947 15589 ft 344 kts 147°
2026-05-08 05:53 40.34191 -105.07129 15477 ft 345 kts 147°
2026-05-08 05:53 40.32232 -105.05308 15372 ft 345 kts 147°
2026-05-08 05:54 40.30274 -105.03489 15270 ft 345 kts 147°
2026-05-08 05:54 40.28314 -105.01672 15179 ft 345 kts 147°
2026-05-08 05:54 40.26355 -104.99859 14928 ft 344 kts 147°
2026-05-08 05:54 40.24403 -104.98058 14904 ft 343 kts 147°
2026-05-08 05:55 40.22450 -104.96257 14904 ft 344 kts 147°
2026-05-08 05:55 40.20497 -104.94457 14899 ft 344 kts 147°
2026-05-08 05:55 40.18520 -104.92699 14895 ft 343 kts 152°
2026-05-08 05:55 40.16390 -104.91339 14641 ft 339 kts 159°
2026-05-08 05:56 40.14328 -104.90180 14361 ft 336 kts 160°
2026-05-08 05:56 40.12156 -104.88960 14090 ft 335 kts 160°
2026-05-08 05:56 40.10050 -104.87778 13800 ft 334 kts 160°
2026-05-08 05:56 40.07894 -104.86568 13490 ft 332 kts 160°
2026-05-08 05:57 40.05786 -104.85385 13219 ft 329 kts 159°
2026-05-08 05:57 40.03718 -104.84224 12948 ft 326 kts 159°
2026-05-08 05:57 40.01642 -104.83048 12960 ft 326 kts 159°
2026-05-08 05:57 39.99557 -104.81858 12727 ft 330 kts 159°
2026-05-08 05:58 39.97423 -104.80860 12206 ft 322 kts 170°
2026-05-08 05:58 39.95253 -104.80482 11987 ft 311 kts 182°
2026-05-08 05:58 39.93094 -104.80533 11891 ft 311 kts 185°
2026-05-08 05:58 39.90931 -104.80594 11557 ft 312 kts 184°
2026-05-08 05:59 39.88745 -104.80650 11074 ft 316 kts 184°
2026-05-08 05:59 39.86544 -104.80704 10595 ft 318 kts 183°
2026-05-08 05:59 39.84325 -104.80761 10119 ft 320 kts 183°
2026-05-08 05:59 39.82089 -104.80819 9615 ft 321 kts 182°
2026-05-08 06:00 39.80192 -104.80866 9204 ft 322 kts 182°
2026-05-08 06:00 39.78148 -104.80699 8995 ft 308 kts 165°
2026-05-08 06:00 39.76347 -104.79467 8996 ft 281 kts 141°
2026-05-08 06:00 39.74950 -104.77865 9001 ft 259 kts 140°
2026-05-08 06:01 39.73454 -104.76660 9045 ft 251 kts 165°
2026-05-08 06:01 39.71752 -104.76283 9054 ft 248 kts 176°
2026-05-08 06:01 39.70037 -104.76083 9009 ft 245 kts 177°
2026-05-08 06:01 39.68334 -104.75902 9007 ft 247 kts 177°
2026-05-08 06:02 39.66619 -104.75723 9006 ft 247 kts 177°
2026-05-08 06:02 39.64912 -104.75453 9001 ft 249 kts 167°
2026-05-08 06:02 39.63417 -104.74324 8898 ft 254 kts 137°
2026-05-08 06:02 39.62534 -104.72420 8520 ft 242 kts 105°
2026-05-08 06:03 39.62392 -104.70313 8154 ft 230 kts 89°
2026-05-08 06:03 39.62415 -104.68311 8002 ft 215 kts 87°
2026-05-08 06:03 39.62476 -104.66386 8032 ft 213 kts 82°
2026-05-08 06:03 39.63099 -104.64695 8007 ft 209 kts 44°
2026-05-08 06:04 39.64345 -104.63832 8000 ft 204 kts
2026-05-08 06:04 39.65710 -104.64109 8008 ft 197 kts 334°
2026-05-08 06:04 39.66813 -104.64886 8007 ft 168 kts 327°
2026-05-08 06:04 39.67783 -104.65632 7998 ft 158 kts 327°
2026-05-08 06:05 39.68789 -104.66169 7996 ft 157 kts 348°
2026-05-08 06:05 39.69880 -104.66216 7946 ft 157 kts 358°
2026-05-08 06:05 39.70971 -104.66200 7774 ft 156 kts 358°
2026-05-08 06:05 39.72053 -104.66185 7587 ft 155 kts 359°
2026-05-08 06:06 39.73131 -104.66171 7396 ft 155 kts 358°
2026-05-08 06:06 39.74203 -104.66158 7200 ft 153 kts 358°
2026-05-08 06:06 39.75268 -104.66145 7008 ft 153 kts 360°
2026-05-08 06:06 39.76316 -104.66133 6804 ft 153 kts 359°
2026-05-08 06:07 39.77389 -104.66120 6656 ft 152 kts 358°
2026-05-08 06:07 39.78448 -104.66107 6459 ft 152 kts 360°
2026-05-08 06:07 39.79491 -104.66095 6227 ft 152 kts
2026-05-08 06:07 39.80536 -104.66082 5998 ft 149 kts
2026-05-08 06:08 39.81565 -104.66070 5765 ft 148 kts
2026-05-08 06:08 39.82593 -104.66057 5533 ft 147 kts
2026-05-08 06:08 39.83574 -104.66033 5419 ft 123 kts
2026-05-08 06:08 39.84192 -104.66037 5412 ft 58 kts
2026-05-08 06:09 39.84430 -104.66034 5415 ft 27 kts
2026-05-08 06:09 39.84627 -104.66037 5410 ft 30 kts 355°
2026-05-08 06:09 39.84838 -104.66110 5397 ft 31 kts 329°
2026-05-08 06:09 39.85001 -104.66220 5405 ft 25 kts 337°
2026-05-08 06:10 39.85171 -104.66249 5390 ft 23 kts 345°
2026-05-08 06:10 39.85223 -104.66336 5391 ft 8 kts 265°
2026-05-08 06:10 39.85210 -104.66421 5392 ft 11 kts 259°
2026-05-08 06:10 39.85209 -104.66528 5389 ft 14 kts 276°
2026-05-08 06:11 39.85252 -104.66633 5384 ft 14 kts 296°
2026-05-08 06:11 39.85315 -104.66722 5382 ft 10 kts 345°
2026-05-08 06:11 39.85369 -104.66721 5384 ft 0 kts 359°
2026-05-08 06:12 39.85362 -104.66721 5384 ft 2 kts 359°
2026-05-08 06:12 39.85366 -104.66721 5384 ft 0 kts 359°